DW9421 Silver Spring MD US current weather conditions

sailwx.info

Wind from 133

Air temperature 7.2° C
Dewpoint 6.6° C

Last reported at 2020-Jan-25 13:00 UTC.
Time now 2020-Jan-25 14:10 UTC

Location: N 39°00' W 077°02'.
View on Google Maps.

See reports from other nearby stations

  
Tides and Currents Weather Stations Pressure Air Temp Water Temp Dewpoint Dewpoint Depression Visibility Wind Speed Wind Dir Waves Ship Positions
date/time (UTC)wind fromknots sea level pressurealtimeterstation pressurevisibilityair tempwater tempwave heightnotes
2020-Jan-25 13:00 133 7.2
2020-Jan-25 12:45 072 1 gusting 6 7.2
2020-Jan-25 12:30 021 1 gusting 6 7.2
2020-Jan-25 12:15 023 1 gusting 6 7.2
2020-Jan-25 12:00 328 0 gusting 3 7.2
2020-Jan-25 11:45 340 0 gusting 5 7.2
2020-Jan-25 11:30 293 1 gusting 11 7.2
2020-Jan-25 11:15 015 1 gusting 6 7.2
2020-Jan-25 11:00 350 0 gusting 5 7.2
2020-Jan-25 10:45 309 2 gusting 6 7.8
2020-Jan-25 10:30 317 0 gusting 5 7.8
2020-Jan-25 10:15 312 0 gusting 3 7.8
2020-Jan-25 10:00 128 0 gusting 5 7.8
2020-Jan-25 09:45 230 0 gusting 5 7.8
2020-Jan-25 09:30 077 4 gusting 11 7.8
2020-Jan-25 09:16 028 2 gusting 9 7.8
2020-Jan-25 09:01 059 2 gusting 13 7.8
2020-Jan-25 08:48 070 2 gusting 9 7.8
2020-Jan-25 08:32 040 3 gusting 7 7.2
2020-Jan-25 08:17 133 1 gusting 7 7.2
2020-Jan-25 08:03 063 3 gusting 7 7.2
2020-Jan-25 07:48 047 1 gusting 9 7.2
2020-Jan-25 07:31 059 2 gusting 7 7.2
2020-Jan-25 07:16 084 2 gusting 11 7.8
2020-Jan-25 07:02 063 2 gusting 7 7.8
2020-Jan-25 06:46 030 2 gusting 9 7.2
2020-Jan-25 06:32 071 2 gusting 8 7.2
2020-Jan-25 06:16 107 3 gusting 12 7.2
2020-Jan-25 06:02 100 2 gusting 8 7.2
2020-Jan-25 05:47 005 2 gusting 9 7.2
2020-Jan-25 05:30 030 2 gusting 11 7.2
2020-Jan-25 05:15 088 4 gusting 11 7.2
2020-Jan-25 05:01 069 2 gusting 7 7.8
2020-Jan-25 04:45 084 2 gusting 8 7.8
2020-Jan-25 04:30 035 2 gusting 7 7.8
2020-Jan-25 04:15 082 1 gusting 10 7.8
2020-Jan-25 04:00 070 3 gusting 9 7.8
2020-Jan-25 03:46 108 4 gusting 9 7.8
2020-Jan-25 03:30 056 4 gusting 11 7.8
2020-Jan-25 03:15 061 3 gusting 8 7.8
2020-Jan-25 03:01 053 1 gusting 10 7.8
2020-Jan-25 02:45 031 1 gusting 9 7.8
2020-Jan-25 02:30 063 6 gusting 13 7.8
2020-Jan-25 02:15 074 4 gusting 9 7.8
2020-Jan-25 02:00 061 1 gusting 11 7.8
2020-Jan-25 01:48 053 4 gusting 10 7.8
2020-Jan-25 01:31 055 3 gusting 10 8.3
2020-Jan-25 01:16 088 3 gusting 11 8.3
2020-Jan-25 01:02 044 2 gusting 9 8.3
2020-Jan-25 00:46 065 3 gusting 8 8.3
2020-Jan-25 00:31 017 2 gusting 9 8.3
2020-Jan-25 00:17 092 3 gusting 11 8.9
2020-Jan-25 00:02 054 3 gusting 9 8.9
2020-Jan-24 23:46 086 2 gusting 13 8.9
2020-Jan-24 23:33 066 2 gusting 9 8.9
2020-Jan-24 23:18 046 4 gusting 10 9.4
2020-Jan-24 23:01 021 2 gusting 8 9.4
2020-Jan-24 22:46 034 1 gusting 6 8.9
2020-Jan-24 22:33 077 1 gusting 4 8.9
2020-Jan-24 22:16 098 1 gusting 6 8.9
2020-Jan-24 22:02 068 1 gusting 7 8.9
2020-Jan-24 21:46 042 0 gusting 7 9.4
2020-Jan-24 21:32 076 0 gusting 6 9.4
2020-Jan-24 21:16 112 2 gusting 6 9.4
2020-Jan-24 21:02 036 3 gusting 7 8.9
2020-Jan-24 20:46 084 1 gusting 7 8.9
2020-Jan-24 20:31 073 8.9
2020-Jan-24 20:16 076 2 gusting 7 8.9
2020-Jan-24 20:01 092 8.9
2020-Jan-24 19:46 082 3 gusting 9 9.4
2020-Jan-24 19:31 036 1 gusting 6 9.4
2020-Jan-24 19:16 118 1 gusting 6 9.4
2020-Jan-24 19:03 110 1 gusting 6 10.0
2020-Jan-24 18:46 075 0 gusting 8 10.0
2020-Jan-24 18:30 044 1 gusting 6 10.0
2020-Jan-24 18:16 053 0 gusting 5 10.0
2020-Jan-24 18:00 036 1 gusting 6 9.4
2020-Jan-24 17:45 065 3 gusting 8 10.0
2020-Jan-24 17:30 148 2 gusting 9 9.4
2020-Jan-24 17:15 106 0 gusting 6 9.4
2020-Jan-24 17:00 164 2 gusting 6 9.4
2020-Jan-24 16:45 150 3 gusting 7 8.9
2020-Jan-24 16:30 161 1 gusting 5 8.3
2020-Jan-24 16:19 059 1 gusting 7 7.8
2020-Jan-24 16:02 078 3 gusting 6 6.7
2020-Jan-24 15:47 355 1 gusting 6 6.7
2020-Jan-24 15:32 034 3 gusting 7 6.1
2020-Jan-24 15:17 067 1 gusting 7 5.6
2020-Jan-24 15:01 054 2 gusting 5 5.6
2020-Jan-24 14:46 129 2 gusting 7 4.4
2020-Jan-24 14:31 079 0 gusting 6 3.9
2020-Jan-24 14:16 063 1 gusting 5 3.3
2020-Jan-24 14:01 088 0 gusting 4 2.8
2020-Jan-24 13:47 069 1 gusting 6 2.8
2020-Jan-24 13:32 083 0 gusting 4 1.7
2020-Jan-24 13:15 087 0 gusting 2 1.7
2020-Jan-24 13:00 078 1.1
2020-Jan-24 12:46 071 1.7
2020-Jan-24 12:30 050 1.7
2020-Jan-24 12:17 050 1.7
2020-Jan-24 12:01 050 1.1
2020-Jan-24 11:45 050 1.1
2020-Jan-24 11:30 050 1.1
2020-Jan-24 11:15 050 1.1
2020-Jan-24 11:00 050 0.6
2020-Jan-24 10:45 080 0.6
2020-Jan-24 10:30 080 0.6
2020-Jan-24 10:15 080 -0.0
2020-Jan-24 10:00 080 -0.0
2020-Jan-24 09:45 080 -0.0
2020-Jan-24 09:30 080 -0.0
2020-Jan-24 09:15 080 -0.0
2020-Jan-24 09:00 080 -0.0
2020-Jan-24 08:45 080 0.6
2020-Jan-24 08:30 080 0.6
2020-Jan-24 08:19 080 0.6
2020-Jan-24 08:02 080 0.6
2020-Jan-24 07:47 080 0.6
2020-Jan-24 07:32 080 0.6
2020-Jan-24 07:16 080 0.6
2020-Jan-24 07:01 080 0.6
2020-Jan-24 06:47 080 0.6
2020-Jan-24 06:32 080 0.6
2020-Jan-24 06:16 080 0.6
2020-Jan-24 06:02 080 0.6
2020-Jan-24 05:46 080 1.1
2020-Jan-24 05:33 080 1.1
2020-Jan-24 05:16 080 1.1
2020-Jan-24 05:02 080 1.1
2020-Jan-24 04:46 080 1.7
2020-Jan-24 04:32 080 1.7
2020-Jan-24 04:17 080 1.7
2020-Jan-24 04:02 101 1.7
2020-Jan-24 03:46 101 1.7
2020-Jan-24 03:31 101 1.7
2020-Jan-24 03:16 101 1.7
2020-Jan-24 03:01 101 1.7
2020-Jan-24 02:46 101 2.2
2020-Jan-24 02:31 101 2.2
2020-Jan-24 02:16 101 2.2
2020-Jan-24 02:01 101 2.2
2020-Jan-24 01:45 101 2.2
2020-Jan-24 01:31 101 2.8
2020-Jan-24 01:17 101 2.8
2020-Jan-24 01:01 101 2.8
2020-Jan-24 00:46 101 2.8
2020-Jan-24 00:32 101 2.8
2020-Jan-24 00:16 101 2.8
2020-Jan-24 00:01 064 3.3
2020-Jan-23 23:47 136 3.3
2020-Jan-23 23:31 136 3.3
2020-Jan-23 23:16 136 3.9
2020-Jan-23 23:01 136 3.9
2020-Jan-23 22:48 136 4.4
2020-Jan-23 22:31 136 4.4
2020-Jan-23 22:16 136 5.0
2020-Jan-23 22:01 136 5.0
2020-Jan-23 21:46 136 0 gusting 2 5.0
2020-Jan-23 21:31 136 5.6
2020-Jan-23 21:15 134 0 gusting 3 5.6
2020-Jan-23 21:01 116 0 gusting 5 5.6
2020-Jan-23 20:46 132 0 gusting 4 5.6
2020-Jan-23 20:30 166 6.1
2020-Jan-23 20:16 170 5.6
2020-Jan-23 20:00 173 0 gusting 2 5.6
2020-Jan-23 19:45 172 5.6
2020-Jan-23 19:30 172 0 gusting 3 5.6
2020-Jan-23 19:15 115 5.0
2020-Jan-23 19:00 115 0 gusting 3 5.0
2020-Jan-23 18:45 130 5.0
2020-Jan-23 18:30 131 5.0
2020-Jan-23 18:15 133 5.0
2020-Jan-23 18:00 128 0 gusting 2 4.4
2020-Jan-23 17:45 126 0 gusting 4 4.4
2020-Jan-23 17:30 105 4.4
2020-Jan-23 17:15 103 4.4
2020-Jan-23 17:00 113 4.4
2020-Jan-23 16:45 106 0 gusting 2 4.4
2020-Jan-23 16:30 086 0 gusting 2 3.9
2020-Jan-23 16:17 110 3.3
2020-Jan-23 16:02 057 2.8
2020-Jan-23 15:46 057 2.2
2020-Jan-23 15:33 057 1.7
2020-Jan-23 15:17 072 1.1
2020-Jan-23 15:01 073 0.6
2020-Jan-23 14:45 073 -0.0
2020-Jan-23 14:31 074 -1.1
2020-Jan-23 14:16 073 -1.7
2020-Jan-23 14:01 074 -2.2